| time (UTC) | temp C | wind direction | speed KPH | gust KPH | rain 1hr cm | rain 24hr cm | rain mn cm | humidity % | barometer mb |
| 20260906010119 | 14 | 0.0 | 0.0 | 0.00 | 0.00 | 0.00 | 10 | 1015.7 | |
| 20260906004735 | 14 | 0.0 | 0.0 | 0.00 | 0.00 | 0.00 | 10 | 1015.7 | |
| 20260906003351 | 13 | 0.0 | 0.0 | 0.00 | 0.00 | 0.00 | 10 | 1015.8 | |
| 20260906002007 | 13 | 0.0 | 0.0 | 0.00 | 0.00 | 0.00 | 10 | 1015.7 | |
| 20260906000624 | 13 | 0.0 | 0.0 | 0.00 | 0.00 | 0.00 | 10 | 1015.6 | |
| 20260905235241 | 13 | 0.0 | 0.0 | 0.00 | 0.00 | 0.00 | 10 | 1015.6 | |
| 20260905233858 | 13 | 0.0 | 0.0 | 0.00 | 0.00 | 0.00 | 10 | 1015.5 | |
| 20260905232514 | 13 | 0.0 | 0.0 | 0.00 | 0.00 | 0.00 | 10 | 1015.5 | |
| 20260905231131 | 13 | 0.0 | 0.0 | 0.00 | 0.00 | 0.00 | 10 | 1015.4 | |
| 20260905225747 | 13 | 0.0 | 0.0 | 0.00 | 0.00 | 0.00 | 10 | 1015.4 | |
| 20260905224404 | 13 | 0.0 | 0.0 | 0.00 | 0.00 | 0.00 | 10 | 1015.3 | |
| 20260905223020 | 13 | 0.0 | 0.0 | 0.00 | 0.00 | 0.00 | 10 | 1015.4 | |
| 20260905221638 | 14 | 0.0 | 0.0 | 0.00 | 0.00 | 0.00 | 10 | 1015.3 | |
| 20260905220254 | 13 | 0.0 | 0.0 | 0.00 | 0.00 | 0.00 | 10 | 1015.4 | |
| 20260905214911 | 13 | 0.0 | 0.0 | 0.00 | 0.00 | 0.00 | 10 | 1015.4 | |
| 20260905213529 | 14 | 0.0 | 0.0 | 0.00 | 0.00 | 0.00 | 10 | 1015.2 | |
| 20260905212145 | 13 | 0.0 | 0.0 | 0.00 | 0.00 | 0.00 | 10 | 1015.2 | |
| 20260905210800 | 13 | 0.0 | 0.0 | 0.00 | 0.00 | 0.00 | 10 | 1015.2 | |
| 20260905205416 | 13 | 0.0 | 0.0 | 0.00 | 0.00 | 0.00 | 10 | 1015.1 | |
| 20260905204033 | 13 | 0.0 | 0.0 | 0.00 | 0.00 | 0.00 | 10 | 1015.2 | |
| 20260905202647 | 13 | 0.0 | 0.0 | 0.00 | 0.00 | 0.00 | 10 | 1015.3 | |
| 20260905201304 | 13 | 0.0 | 0.0 | 0.00 | 0.00 | 0.00 | 10 | 1015.2 | |
| 20260905195921 | 13 | 0.0 | 0.0 | 0.00 | 0.00 | 0.00 | 10 | 1015.3 | |
| 20260905194537 | 13 | 0.0 | 0.0 | 0.00 | 0.00 | 0.00 | 10 | 1015.3 | |
| 20260905193153 | 13 | 0.0 | 0.0 | 0.00 | 0.00 | 0.00 | 10 | 1015.4 | |
| 20260905191809 | 13 | 0.0 | 0.0 | 0.00 | 0.00 | 0.00 | 10 | 1015.4 | |
| 20260905190426 | 13 | 0.0 | 0.0 | 0.00 | 0.00 | 0.00 | 10 | 1015.5 | |
| 20260905185042 | 13 | 0.0 | 0.0 | 0.00 | 0.00 | 0.00 | 10 | 1015.7 | |
| 20260905183658 | 13 | 0.0 | 0.0 | 0.00 | 0.00 | 0.00 | 10 | 1015.6 | |
| 20260905182315 | 13 | 0.0 | 0.0 | 0.00 | 0.00 | 0.00 | 10 | 1015.6 | |
| 20260905180931 | 13 | 0.0 | 0.0 | 0.00 | 0.00 | 0.00 | 10 | 1015.7 | |
| 20260905175549 | 13 | 0.0 | 0.0 | 0.00 | 0.00 | 0.00 | 10 | 1015.7 | |
| 20260905174205 | 13 | 0.0 | 0.0 | 0.00 | 0.00 | 0.00 | 10 | 1015.7 | |
| 20260905172822 | 13 | 0.0 | 0.0 | 0.00 | 0.00 | 0.00 | 10 | 1015.5 | |
| 20260905171439 | 13 | 0.0 | 0.0 | 0.00 | 0.00 | 0.00 | 10 | 1015.4 | |
| 20260905170055 | 13 | 0.0 | 0.0 | 0.00 | 0.00 | 0.00 | 10 | 1015.4 | |
| 20260905164712 | 13 | 0.0 | 0.0 | 0.00 | 0.00 | 0.00 | 10 | 1015.6 | |
| 20260905163329 | 13 | 0.0 | 0.0 | 0.00 | 0.00 | 0.00 | 10 | 1015.6 | |
| 20260905161947 | 13 | 0.0 | 0.0 | 0.00 | 0.00 | 0.00 | 10 | 1015.3 | |
| 20260905160603 | 13 | 0.0 | 0.0 | 0.00 | 0.00 | 0.00 | 10 | 1015.3 | |
| 20260905155219 | 13 | 0.0 | 0.0 | 0.00 | 0.00 | 0.00 | 10 | 1015.6 | |
| 20260905153838 | 14 | 0.0 | 0.0 | 0.00 | 0.00 | 0.00 | 10 | 1015.2 | |
| 20260905152501 | 16 | 0.0 | 0.0 | 0.00 | 0.00 | 0.00 | 88 | 1015.1 | |
| 20260905151122 | 19 | 0.0 | 0.0 | 0.00 | 0.00 | 0.00 | 63 | 1013.6 | |
| 20260905145738 | 20 | 0.0 | 0.0 | 0.00 | 0.00 | 0.00 | 62 | 1013.7 | |
| 20260905144353 | 19 | 0.0 | 0.0 | 0.00 | 0.00 | 0.00 | 66 | 1013.6 | |
| 20260905143007 | 18 | 0.0 | 0.0 | 0.00 | 0.00 | 0.00 | 74 | 1013.7 | |
| 20260905141619 | 16 | 0.0 | 0.0 | 0.00 | 0.00 | 0.00 | 96 | 1014.1 | |
| 20260905140235 | 15 | 0.0 | 0.0 | 0.00 | 0.00 | 0.00 | 99 | 1014.0 | |
| 20260905134857 | 16 | 0.0 | 0.0 | 0.00 | 0.00 | 0.00 | 82 | 1014.2 | |
| 20260905133523 | 22 | 0.0 | 0.0 | 0.00 | 0.00 | 0.00 | 41 | 1012.8 | |
| 20260905130758 | 22 | 0.0 | 0.0 | 0.00 | 0.00 | 0.00 | 40 | 1012.4 | |
| 20260905125423 | 25 | 0.0 | 0.0 | 0.00 | 0.00 | 0.00 | 34 | 1012.1 | |
| 20260905124052 | 32 | 0.0 | 0.0 | 0.00 | 0.00 | 0.00 | 25 | 1011.5 | |
| 20260905122704 | 33 | 0.0 | 0.0 | 0.00 | 0.00 | 0.00 | 24 | 1011.7 | |
| 20260905121309 | 27 | 0.0 | 0.0 | 0.00 | 0.00 | 0.00 | 35 | 1012.0 | |
| 20260905115922 | 26 | 0.0 | 0.0 | 0.00 | 0.00 | 0.00 | 41 | 1012.0 | |
| 20260905114533 | 24 | 0.0 | 0.0 | 0.00 | 0.00 | 0.00 | 47 | 1012.4 | |
| 20260905113147 | 20 | 0.0 | 0.0 | 0.00 | 0.00 | 0.00 | 58 | 1012.4 | |
| 20260905111809 | 24 | 0.0 | 0.0 | 0.00 | 0.00 | 0.00 | 40 | 1011.9 | |
| 20260905110425 | 24 | 0.0 | 0.0 | 0.00 | 0.00 | 0.00 | 40 | 1011.9 | |
| 20260905105041 | 25 | 0.0 | 0.0 | 0.00 | 0.00 | 0.00 | 38 | 1011.6 | |
| 20260905103656 | 23 | 0.0 | 0.0 | 0.00 | 0.00 | 0.00 | 40 | 1011.7 | |
| 20260905102307 | 23 | 0.0 | 0.0 | 0.00 | 0.00 | 0.00 | 44 | 1011.5 | |
| 20260905100924 | 23 | 0.0 | 0.0 | 0.00 | 0.00 | 0.00 | 43 | 1011.7 | |
| 20260905095533 | 21 | 0.0 | 0.0 | 0.00 | 0.00 | 0.00 | 51 | 1011.9 | |
| 20260905094151 | 20 | 0.0 | 0.0 | 0.00 | 0.00 | 0.00 | 51 | 1012.0 | |
| 20260905092812 | 22 | 0.0 | 0.0 | 0.00 | 0.00 | 0.00 | 46 | 1011.8 | |
| 20260905091426 | 23 | 0.0 | 0.0 | 0.00 | 0.00 | 0.00 | 46 | 1011.5 | |
| 20260905090041 | 23 | 0.0 | 0.0 | 0.00 | 0.00 | 0.00 | 46 | 1011.3 | |
| 20260905084701 | 22 | 0.0 | 0.0 | 0.00 | 0.00 | 0.00 | 46 | 1011.2 | |
| 20260905083312 | 22 | 0.0 | 0.0 | 0.00 | 0.00 | 0.00 | 48 | 1011.0 | |
| 20260905081926 | 20 | 0.0 | 0.0 | 0.00 | 0.00 | 0.00 | 52 | 1011.1 | |
| 20260905080557 | 23 | 0.0 | 0.0 | 0.00 | 0.00 | 0.00 | 43 | 1010.8 | |
| 20260905075219 | 32 | 0.0 | 0.0 | 0.00 | 0.00 | 0.00 | 29 | 1009.9 | |
| 20260905073836 | 34 | 0.0 | 0.0 | 0.00 | 0.00 | 0.00 | 25 | 1009.5 | |
| 20260905072450 | 32 | 0.0 | 0.0 | 0.00 | 0.00 | 0.00 | 28 | 1009.5 | |
| 20260905071039 | 31 | 0.0 | 0.0 | 0.00 | 0.00 | 0.00 | 32 | 1009.2 | |
| 20260905065656 | 23 | 0.0 | 0.0 | 0.00 | 0.00 | 0.00 | 42 | 1009.7 | |
| 20260905064318 | 24 | 0.0 | 0.0 | 0.00 | 0.00 | 0.00 | 39 | 1009.2 | |
| 20260905062944 | 33 | 0.0 | 0.0 | 0.00 | 0.00 | 0.00 | 28 | 1008.6 | |
| 20260905061609 | 27 | 0.0 | 0.0 | 0.00 | 0.00 | 0.00 | 34 | 1008.7 | |
| 20260905060223 | 36 | 0.0 | 0.0 | 0.00 | 0.00 | 0.00 | 25 | 1008.0 | |
| 20260905054812 | 28 | 0.0 | 0.0 | 0.00 | 0.00 | 0.00 | 40 | 1008.1 | |
| 20260905053423 | 19 | 0.0 | 0.0 | 0.00 | 0.00 | 0.00 | 72 | 1008.7 | |
| 20260905052039 | 21 | 0.0 | 0.0 | 0.00 | 0.00 | 0.00 | 68 | 1008.3 | |
| 20260905050651 | 17 | 0.0 | 0.0 | 0.00 | 0.00 | 0.00 | 85 | 1008.3 | |
| 20260905045308 | 18 | 0.0 | 0.0 | 0.00 | 0.00 | 0.00 | 85 | 1008.2 | |
| 20260905043923 | 17 | 0.0 | 0.0 | 0.00 | 0.00 | 0.00 | 89 | 1007.8 | |
| 20260905042539 | 17 | 0.0 | 0.0 | 0.00 | 0.00 | 0.00 | 97 | 1007.6 | |
| 20260905041156 | 17 | 0.0 | 0.0 | 0.00 | 0.00 | 0.00 | 10 | 1007.2 | |
| 20260905035813 | 17 | 0.0 | 0.0 | 0.00 | 0.00 | 0.00 | 10 | 1006.9 | |
| 20260905034430 | 18 | 0.0 | 0.0 | 0.00 | 0.00 | 0.00 | 10 | 1006.7 | |
| 20260905033046 | 17 | 0.0 | 0.0 | 0.00 | 0.00 | 0.00 | 10 | 1006.5 | |
| 20260905031703 | 18 | 0.0 | 0.0 | 0.00 | 0.00 | 0.00 | 10 | 1006.5 | |
| 20260905030319 | 17 | 0.0 | 0.0 | 0.00 | 0.00 | 0.00 | 10 | 1006.5 | |
| 20260905024935 | 17 | 0.0 | 0.0 | 0.00 | 0.00 | 0.00 | 10 | 1006.5 | |
| 20260905023552 | 17 | 0.0 | 0.0 | 0.00 | 0.00 | 0.00 | 10 | 1006.2 | |
| 20260905022209 | 17 | 0.0 | 0.0 | 0.00 | 0.00 | 0.00 | 10 | 1006.2 | |
| 20260905020828 | 18 | 0.0 | 0.0 | 0.00 | 0.00 | 0.00 | 10 | 1006.1 | |
| 20260905015444 | 18 | 0.0 | 0.0 | 0.00 | 0.00 | 0.00 | 96 | 1006.3 | |
| 20260905014101 | 18 | 0.0 | 0.0 | 0.00 | 0.00 | 0.00 | 95 | 1006.0 | |
| 20260905012718 | 18 | 0.0 | 0.0 | 0.00 | 0.00 | 0.00 | 94 | 1005.6 | |
| 20260905011334 | 18 | 0.0 | 0.0 | 0.00 | 0.00 | 0.00 | 92 | 1005.9 |